Theta_e
288 288 288 288 288 288 289 289 289 290 291 292 291 292 293 298 300 302 306 308 311 314 319 323 325 326 326 327 327 326 323 319 320 316 313 309 308 308 309 310 311 310 312
285 286 286 286 286 286 287 288 289 290 293 292 293 294 295 297 300 302 304 309 311 314 317 318 322 324 326 326 326 324 321 320 319 314 313 307 308 308 310 310 310 310 311
283 284 285 284 284 284 285 287 289 290 291 292 294 296 297 297 298 300 301 307 311 312 314 315 317 321 323 323 325 325 322 318 318 318 313 306 305 307 310 309 310 311 310
282 283 283 283 283 284 285 286 289 290 291 292 293 294 294 295 297 299 302 308 311 311 313 314 315 319 322 321 323 324 323 321 316 318 316 314 313 308 306 309 310 310 310
281 282 282 283 283 284 284 287 289 289 291 291 293 294 295 298 299 300 300 304 307 311 313 313 314 318 321 323 322 321 322 322 320 317 314 313 311 312 309 305 307 310 310
281 281 282 283 282 283 283 285 286 288 289 290 292 294 295 299 298 298 300 304 306 309 310 312 313 315 319 320 323 324 323 322 321 319 317 315 312 311 309 307 308 308 309
280 280 280 280 281 281 282 284 286 285 287 289 291 293 296 299 297 298 301 303 305 308 307 309 310 314 314 318 320 323 323 323 321 319 317 318 317 317 315 313 310 308 311
280 280 280 280 280 281 282 283 284 284 286 289 290 292 296 298 300 301 301 303 302 304 306 308 309 309 312 312 318 320 322 322 321 319 319 318 318 318 316 315 313 308 309
279 279 280 280 280 280 281 282 283 284 286 287 289 290 293 295 297 297 297 299 304 306 302 303 304 306 306 308 312 318 319 321 321 320 319 318 317 317 316 316 314 312 306
277 279 279 279 280 280 280 282 284 283 285 287 288 290 291 293 294 297 297 298 300 302 301 297 299 299 300 305 308 314 319 319 318 318 317 317 316 316 317 316 316 315 313
275 277 279 280 280 280 279 280 281 282 284 285 286 288 289 291 292 294 296 297 298 298 299 296 296 298 298 299 304 307 316 315 313 311 314 310 310 310 311 311 313 313 313
274 278 279 279 279 278 278 278 280 281 283 284 285 287 288 289 290 291 293 295 295 295 295 295 294 295 296 297 300 300 305 303 299 299 300 298 299 298 299 300 299 300 299
273 277 278 277 278 277 277 277 279 280 282 283 284 285 286 287 288 289 291 292 293 292 293 293 292 292 292 293 293 295 296 295 295 296 295 294 295 294 294 294 293 293 293
271 274 275 276 276 276 276 277 277 279 281 282 283 283 284 286 287 288 289 290 291 290 289 289 289 290 290 290 289 290 290 289 289 290 291 292 292 292 292 291 291 291 289
269 271 272 274 274 274 275 276 277 278 279 281 281 282 283 285 286 286 287 287 287 287 287 287 287 288 289 289 288 288 288 287 286 286 287 287 288 289 291 291 290 289 287
265 268 268 272 272 273 274 275 277 277 279 279 280 281 282 283 284 285 285 285 285 285 286 285 285 285 286 288 289 286 287 286 285 284 284 285 286 287 288 289 291 290 288
263 267 265 269 271 272 274 275 276 277 278 278 279 281 281 282 283 283 283 283 284 284 284 284 284 284 285 286 286 285 284 284 283 283 283 282 283 283 284 285 285 285 288
264 266 266 265 269 268 273 276 276 276 277 278 279 281 281 281 282 282 282 282 283 283 283 283 284 284 284 286 285 284 283 282 282 282 283 282 282 282 282 282 282 282 282
268 266 266 266 269 269 272 276 275 276 276 277 279 281 282 282 282 282 282 282 282 282 282 283 283 283 284 286 285 283 282 282 281 282 282 282 281 284 283 280 279 279 280
274 273 274 273 271 272 274 275 273 274 275 276 279 281 282 282 281 281 282 282 282 282 283 283 283 284 284 286 285 283 282 280 280 281 282 283 282 283 282 279 278 276 277
274 273 273 272 270 271 273 273 273 272 274 277 280 280 281 282 282 282 282 281 281 281 281 281 282 283 284 285 286 285 282 281 280 280 280 282 284 284 283 282 279 278 278
273 273 272 271 270 271 271 271 270 271 273 276 278 279 280 281 281 281 281 281 280 279 279 279 279 280 282 284 286 285 284 283 280 279 279 281 283 282 282 281 282 281 276
273 272 271 271 269 269 269 269 268 270 272 274 275 277 278 279 279 279 279 279 279 278 277 276 275 275 277 279 282 284 284 283 280 280 280 280 279 278 278 279 277 272 270
268 266 266 267 267 266 268 266 266 268 270 272 276 276 276 276 276 277 277 277 276 275 275 275 273 273 274 275 277 278 279 280 279 279 277 278 276 275 272 269 270 270 269
265 264 265 265 263 263 262 261 265 266 269 271 275 277 275 275 276 276 276 276 277 275 272 271 272 270 272 276 279 278 277 279 278 274 274 271 269 268 267 266 265 266 266
267 265 265 264 263 262 262 262 263 265 267 269 270 275 277 276 274 273 275 279 279 279 279 279 275 274 278 279 278 279 279 279 281 267 264 266 266 266 265 264 263 263 263
Wind_Speed
6 6 8 8 8 8 9 10 13 14 12 8 9 9 8 11 9 9 11 12 9 9 9 8 8 9 9 8 12 12 12 5 5 5 2 2 4 6 6 5 7 6 7
7 9 10 9 8 8 11 12 14 13 11 9 10 10 10 10 12 10 10 12 11 10 9 8 7 8 7 11 13 12 8 6 13 7 7 4 1 5 9 7 8 11 6
9 12 13 10 8 10 11 14 13 15 15 15 12 11 10 10 10 11 9 10 11 9 8 7 8 8 7 7 13 14 13 10 10 13 6 4 4 3 3 9 9 12 8
9 9 13 14 13 13 10 13 13 15 15 16 14 15 13 12 10 10 7 7 8 8 8 8 7 9 8 8 9 11 12 10 10 8 3 3 6 5 1 3 9 8 9
9 12 13 15 15 13 12 12 12 14 14 15 15 13 14 13 10 10 11 10 6 7 8 6 6 7 8 11 12 13 14 12 12 12 9 7 3 3 4 3 3 5 8
11 11 12 14 14 13 12 11 13 13 14 15 15 16 20 14 9 9 9 6 4 5 6 5 5 5 7 10 12 13 17 16 16 12 12 12 9 7 5 3 3 7 5
11 12 13 13 13 15 14 13 13 15 16 15 13 16 17 10 11 9 9 6 4 3 5 5 5 2 3 6 8 14 13 14 14 18 14 12 11 6 8 7 4 3 3
11 13 14 14 14 15 13 15 14 15 14 13 12 14 11 6 3 4 3 3 1 2 1 2 4 5 4 2 9 7 10 13 15 17 12 10 11 9 5 7 7 4 4
11 11 13 13 14 14 14 14 16 15 15 14 12 12 9 7 6 4 4 4 4 3 2 2 5 5 6 6 4 9 10 11 15 15 16 11 7 6 6 7 5 6 3
9 9 11 13 12 13 13 14 13 15 15 15 12 9 9 7 7 6 7 7 6 5 4 3 4 5 6 8 4 9 13 12 8 8 13 11 6 8 6 6 5 6 6
7 7 10 10 12 13 13 13 13 14 12 11 12 11 8 7 6 5 4 3 4 3 3 3 4 4 5 6 7 7 12 11 8 6 9 8 6 5 5 5 4 7 6
7 7 9 11 11 12 12 13 13 13 12 12 11 10 9 8 6 5 5 4 3 3 3 4 4 3 4 5 4 3 6 10 9 6 8 6 4 7 5 4 3 4 3
7 9 10 10 11 11 11 12 12 13 12 12 10 9 8 7 6 5 5 3 1 3 3 3 3 2 4 3 3 4 2 11 10 10 10 9 8 6 4 5 5 3 4
7 8 9 10 10 11 11 11 11 11 11 10 9 8 7 7 5 4 3 2 3 4 3 3 3 2 5 2 2 8 6 14 12 11 12 11 9 6 5 7 6 6 6
6 7 10 11 10 12 13 12 11 12 12 10 8 7 7 6 5 4 4 5 5 6 4 3 5 6 7 3 7 7 2 15 16 14 15 15 14 18 9 5 6 8 7
7 7 8 10 11 12 12 12 12 12 11 10 9 7 7 6 6 6 7 8 7 8 7 9 9 10 7 9 14 14 7 16 16 16 14 14 13 17 25 25 18 11 8
6 8 5 8 8 10 11 11 11 11 11 11 10 9 7 8 8 8 9 9 10 10 10 11 12 12 11 18 22 13 9 13 13 17 11 12 8 11 12 23 23 22 23
5 7 4 5 7 5 10 11 9 10 10 12 12 10 8 9 9 11 11 11 11 11 11 12 13 14 13 25 26 18 10 14 16 15 14 12 11 12 13 15 16 16 15
4 4 3 1 6 5 7 8 9 10 12 12 12 11 10 10 10 11 11 11 12 12 12 12 17 13 14 22 16 10 7 16 18 15 13 13 14 18 18 14 16 14 13
2 2 5 2 4 8 8 7 9 10 11 12 11 11 11 12 12 11 11 10 11 12 11 15 14 15 14 20 16 8 7 13 12 14 16 24 15 21 18 11 10 11 7
3 2 3 4 5 6 7 7 8 9 9 10 9 10 10 10 9 10 9 9 10 12 13 13 12 15 12 14 20 15 8 10 11 11 10 11 22 22 21 17 9 8 8
4 2 2 3 4 5 5 4 5 8 7 7 7 8 9 8 7 9 8 9 9 9 10 11 10 9 9 16 19 20 20 16 11 11 8 10 22 21 20 14 17 17 12
5 2 2 2 3 4 4 3 5 6 6 6 6 5 7 8 8 9 8 7 7 7 8 8 8 8 9 9 19 19 21 21 13 9 16 21 20 20 17 18 17 11 6
4 4 3 0 1 2 3 1 4 5 4 5 5 5 8 9 9 7 7 6 6 7 6 6 7 6 6 6 7 7 6 13 11 13 10 15 15 15 12 8 10 7 6
4 4 5 4 4 1 1 2 3 4 2 3 3 6 6 7 7 8 6 7 8 7 5 5 4 3 4 6 9 6 4 5 9 7 5 5 5 7 6 6 6 5 5
5 4 5 4 4 4 3 1 2 2 2 3 2 2 5 5 4 5 6 17 16 17 17 16 8 3 11 13 13 12 9 8 10 6 4 3 4 4 4 4 5 4 4
Wind_Direction
297 332 331 319 314 319 315 316 313 304 298 303 303 295 286 299 276 267 253 245 232 222 238 247 257 224 209 197 192 190 178 134 173 144 135 187 195 198 211 204 213 219 212
322 320 324 324 321 313 312 307 306 302 304 304 290 277 278 275 283 273 273 241 221 221 222 235 251 243 223 205 182 175 179 169 165 161 160 164 206 237 223 205 214 219 212
317 331 323 318 309 308 307 304 309 306 297 299 290 278 268 267 268 268 260 248 216 211 210 219 243 250 226 204 197 179 186 188 180 166 160 138 190 173 195 220 213 215 211
334 316 317 315 311 307 303 296 301 300 300 300 292 280 271 270 266 268 263 242 202 205 206 203 238 251 239 206 206 199 187 158 170 164 165 110 148 183 246 242 219 212 212
314 319 316 310 308 311 305 302 302 302 296 299 291 283 274 260 254 257 267 251 217 204 199 197 224 256 239 230 205 206 195 178 174 188 175 155 169 109 148 216 210 214 220
320 308 308 311 312 312 305 298 298 298 300 298 296 291 286 241 233 246 252 239 204 183 186 207 234 259 233 237 222 206 202 193 194 182 183 189 179 165 176 157 188 201 201
310 313 322 321 318 315 310 309 312 303 301 301 302 299 299 245 237 245 259 214 202 183 222 220 224 246 324 242 237 215 201 196 195 183 174 192 211 162 195 207 208 207 214
319 323 322 327 322 314 311 314 307 303 303 305 303 299 316 336 5 23 341 24 281 184 148 252 261 270 281 287 260 239 213 195 195 187 175 196 207 205 171 192 200 236 229
315 316 323 328 321 318 318 316 311 308 308 308 302 301 321 343 347 4 20 2 26 357 31 329 298 288 278 253 273 245 213 204 197 201 170 191 186 173 171 192 166 196 179
300 325 327 330 324 320 319 318 313 314 310 307 306 303 313 346 339 2 7 353 343 356 354 337 284 279 280 278 215 252 206 191 184 175 181 182 174 177 184 202 179 219 215
300 321 326 323 322 321 324 321 322 316 315 313 311 311 320 332 342 358 332 328 325 341 326 301 281 275 290 289 284 280 203 192 171 165 163 162 148 158 169 191 193 206 199
294 315 328 331 325 327 325 323 323 322 320 317 317 319 326 335 340 335 322 324 339 346 331 314 314 297 300 302 268 273 162 140 127 116 109 97 105 120 122 108 105 134 100
332 326 336 333 333 331 329 328 328 324 323 321 318 323 329 329 325 318 309 300 85 33 359 360 352 336 14 326 355 61 88 108 113 113 99 92 90 89 104 109 104 86 93
314 303 328 332 337 331 331 332 332 328 325 323 327 330 329 325 321 328 342 28 80 79 42 28 30 329 50 5 160 82 119 92 88 83 94 82 95 104 118 107 119 117 97
331 322 327 331 339 332 335 338 341 336 336 340 344 347 342 349 360 18 38 44 55 64 45 52 42 37 35 330 99 88 82 101 100 82 75 78 75 73 62 92 99 102 104
299 317 309 327 341 336 332 334 345 342 343 350 354 353 4 18 30 45 56 61 59 58 57 56 52 52 52 49 82 65 225 93 97 94 78 73 78 86 76 73 71 76 103
278 313 302 317 315 331 328 334 344 342 356 5 1 8 15 33 41 54 59 65 64 64 62 62 62 58 58 63 69 61 64 85 85 93 97 88 63 77 84 74 70 64 65
267 296 294 309 312 315 330 331 349 359 7 13 13 14 24 42 51 62 61 62 64 63 63 62 63 60 53 54 56 58 67 76 73 78 81 91 87 75 86 84 76 66 63
229 245 262 271 309 328 328 339 355 5 13 8 15 21 27 44 53 58 62 63 69 67 66 63 63 62 61 62 65 60 75 76 70 67 71 74 77 83 85 86 88 79 74
153 9 334 37 354 345 343 7 7 12 8 356 5 17 30 42 46 49 53 62 69 70 68 66 60 59 61 64 71 63 72 76 74 61 67 68 73 77 75 80 88 93 84
146 92 17 29 11 346 342 24 11 14 341 347 9 23 26 37 44 53 51 53 62 64 60 65 56 56 52 61 65 65 71 78 79 70 62 70 76 78 80 80 77 89 95
173 121 73 50 31 6 353 12 28 333 336 346 16 28 31 36 40 53 49 49 54 64 63 62 59 44 45 65 68 76 79 83 89 82 75 76 77 73 72 71 82 89 82
171 148 117 87 56 26 21 27 333 336 340 360 14 28 51 45 39 46 53 52 51 66 66 62 55 38 28 30 40 74 77 75 75 79 76 69 66 63 62 69 69 55 57
186 166 134 122 114 64 59 352 315 327 352 15 17 38 55 53 50 50 52 56 52 49 51 61 50 40 36 33 34 37 44 77 79 78 68 73 77 78 70 51 49 47 42
176 167 171 183 228 203 134 317 328 332 33 49 45 74 45 46 65 70 66 61 74 84 86 74 65 63 55 52 64 51 53 90 115 103 83 77 59 56 57 51 44 38 40
167 170 189 184 200 180 187 236 309 312 144 92 42 66 120 121 99 72 61 63 68 67 69 79 81 21 73 67 55 51 71 61 116 49 66 76 80 86 83 82 67 37 47